Location: Kutna Hora
(49.9500°N, 15.2670°E)
Time: 00:45:31
(UTC+02:00)

ISS - Pass Details

Date: 26 March 2019
Orbit: 408 x 410 km, 51.6° (Epoch: 18 April)

Event Time Altitude Azimuth Distance (km) Brightness Sun altitude
Rises 19:22:38 0° 247° (WSW) 2,332 0.9 -10.6°
Reaches altitude 10° 19:24:43 10° 246° (WSW) 1,472 -0.2 -10.9°
Maximum altitude 19:28:01 77° 159° (SSE) 425 -3.9 -11.4°
Enters shadow 19:30:33 16° 75° (ENE) 1,169 -2.0 -11.8°
